{"data":{"norad_id":69048,"epoch":"2026-05-25T03:10:50.274048Z","epoch_age_seconds":59596,"freshness":"FRESH","line1":"1 69048U 26101Z   26145.13252632 -.00604940  00000+0 -44530-2 0  9991","line2":"2 69048  97.2843 359.9194 0002705  58.3128 301.8400 15.74636678  3016","mean_motion":15.74636678,"eccentricity":0.0002705,"inclination_deg":97.2843,"raan_deg":359.9194,"arg_perigee_deg":58.3128,"mean_anomaly_deg":301.84,"bstar":-0.004453,"rev_number":301,"period_min":91.44966709584,"perigee_km":343.84646664094,"apogee_km":347.48404366097,"semimajor_km":6723.802255151,"source":"CELESTRAK","updated_at":"2026-05-25T13:38:22.101404Z"}}